FW4339 Weather Reports


Display with metric or nautical units.
time (UTC)temp
F
wind
direction
speed
MPH
gust
MPH
rain 1hr
in
rain 24hr
in
rain mn
in
humidity
%
barometer
mb
20260904080054 89 0.0 0.0 0.00 0.00 0.00 41 1012.7
20260904074554 88 0.0 0.0 0.00 0.00 0.00 44 1012.6
20260904073106 88 0.0 0.0 0.00 0.00 0.00 44 1012.4
20260904071549 89 0.0 0.0 0.00 0.00 0.00 44 1012.4
20260904070046 87 0.0 0.0 0.00 0.00 0.00 47 1012.3
20260904064547 83 0.0 0.0 0.00 0.00 0.00 51 1012.4
20260904063044 81 0.0 0.0 0.00 0.00 0.00 56 1012.3
20260904061537 81 0.0 0.0 0.00 0.00 0.00 57 1012.3
20260904060051 80 0.0 0.0 0.00 0.00 0.00 57 1012.2
20260904054550 79 0.0 0.0 0.00 0.00 0.00 58 1012.2
20260904053039 78 0.0 0.0 0.00 0.00 0.00 60 1012.2
20260904051526 78 0.0 0.0 0.00 0.00 0.00 60 1012.2
20260904050033 77 0.0 0.0 0.00 0.00 0.00 61 1012.2
20260904044517 77 0.0 0.0 0.00 0.00 0.00 61 1012.3
20260904043031 77 0.0 0.0 0.00 0.00 0.00 60 1012.2
20260904041513 77 0.0 0.0 0.00 0.00 0.00 60 1012.2
20260904040011 77 0.0 0.0 0.00 0.00 0.00 60 1012.1
20260904034508 77 0.0 0.0 0.00 0.00 0.00 59 1012.0
20260904033020 77 0.0 0.0 0.00 0.00 0.00 58 1011.9
20260904031505 77 0.0 0.0 0.00 0.00 0.00 58 1011.8
20260904030005 77 0.0 0.0 0.00 0.00 0.00 58 1011.7
20260904024506 77 0.0 0.0 0.00 0.00 0.00 57 1011.8
20260904023004 77 0.0 0.0 0.00 0.00 0.00 57 1011.8
20260904021509 77 0.0 0.0 0.00 0.00 0.00 55 1011.8
20260904020002 77 0.0 0.0 0.00 0.00 0.00 54 1011.8
20260904014501 78 0.0 0.0 0.00 0.00 0.00 53 1011.7
20260904013120 78 0.0 0.0 0.00 0.00 0.00 52 1011.6
20260904011559 78 0.0 0.0 0.00 0.00 0.00 51 1011.7
20260904010113 79 0.0 0.0 0.00 0.00 0.00 50 1011.6
20260904004557 78 0.0 0.0 0.00 0.00 0.00 49 1011.6
20260904003110 78 0.0 0.0 0.00 0.00 0.00 48 1011.7
20260904001555 78 0.0 0.0 0.00 0.00 0.00 47 1011.7
20260904000052 79 0.0 0.0 0.00 0.00 0.00 45 1011.7
20260903234552 80 0.0 0.0 0.00 0.00 0.00 44 1011.5
20260903233058 80 0.0 0.0 0.00 0.00 0.00 44 1011.6
20260903231551 80 0.0 0.0 0.00 0.00 0.00 44 1011.7
20260903230057 80 0.0 0.0 0.00 0.00 0.00 44 1011.7
20260903224554 79 0.0 0.0 0.00 0.00 0.00 43 1011.7
20260903223105 80 0.0 0.0 0.00 0.00 0.00 42 1011.7
20260903221551 79 0.0 0.0 0.00 0.00 0.00 43 1011.8
20260903220051 79 0.0 0.0 0.00 0.00 0.00 42 1011.7
20260903214551 80 0.0 0.0 0.00 0.00 0.00 42 1011.8
20260903213047 80 0.0 0.0 0.00 0.00 0.00 42 1011.7
20260903211602 80 0.0 0.0 0.00 0.00 0.00 39 1011.6
20260903210041 81 0.0 0.0 0.00 0.00 0.00 38 1011.6
20260903204552 81 0.0 0.0 0.00 0.00 0.00 37 1011.6
20260903203046 81 0.0 0.0 0.00 0.00 0.00 37 1011.4
20260903201548 82 0.0 0.0 0.00 0.00 0.00 36 1011.2
20260903200046 82 0.0 0.0 0.00 0.00 0.00 36 1011.1
20260903194543 81 0.0 0.0 0.00 0.00 0.00 36 1011.3
20260903193042 82 0.0 0.0 0.00 0.00 0.00 35 1011.4
20260903191541 81 0.0 0.0 0.00 0.00 0.00 36 1011.5
20260903190041 82 0.0 0.0 0.00 0.00 0.00 36 1011.5
20260903184554 83 0.0 0.0 0.00 0.00 0.00 34 1011.3
20260903183043 83 0.0 0.0 0.00 0.00 0.00 34 1011.0
20260903181544 82 0.0 0.0 0.00 0.00 0.00 36 1011.1
20260903180041 82 0.0 0.0 0.00 0.00 0.00 38 1011.1
20260903174539 83 0.0 0.0 0.00 0.00 0.00 37 1011.1
20260903173040 84 0.0 0.0 0.00 0.00 0.00 36 1011.1
20260903171539 84 0.0 0.0 0.00 0.00 0.00 36 1010.9
20260903170037 84 0.0 0.0 0.00 0.00 0.00 36 1010.8
20260903164540 85 0.0 0.0 0.00 0.00 0.00 36 1010.6
20260903163042 85 0.0 0.0 0.00 0.00 0.00 36 1010.6
20260903161539 86 0.0 0.0 0.00 0.00 0.00 36 1010.5
20260903160039 87 0.0 0.0 0.00 0.00 0.00 35 1010.4
20260903154537 88 0.0 0.0 0.00 0.00 0.00 34 1010.4
20260903153040 88 0.0 0.0 0.00 0.00 0.00 33 1010.3
20260903151536 90 0.0 0.0 0.00 0.00 0.00 33 1010.2
20260903150036 90 0.0 0.0 0.00 0.00 0.00 33 1010.1
20260903144537 90 0.0 0.0 0.00 0.00 0.00 33 1010.2
20260903143040 90 0.0 0.0 0.00 0.00 0.00 33 1010.1
20260903141536 91 0.0 0.0 0.00 0.00 0.00 33 1010.1
20260903140042 92 0.0 0.0 0.00 0.00 0.00 35 1009.9
20260903134532 92 0.0 0.0 0.00 0.00 0.00 36 1010.1
20260903133031 93 0.0 0.0 0.00 0.00 0.00 35 1010.2
20260903131531 94 0.0 0.0 0.00 0.00 0.00 34 1010.2
20260903130030 95 0.0 0.0 0.00 0.00 0.00 33 1010.3
20260903124542 95 0.0 0.0 0.00 0.00 0.00 34 1010.4
20260903123032 95 0.0 0.0 0.00 0.00 0.00 34 1010.3
20260903121534 95 0.0 0.0 0.00 0.00 0.00 33 1010.4
20260903120030 95 0.0 0.0 0.00 0.00 0.00 32 1010.6
20260903114527 94 0.0 0.0 0.00 0.00 0.00 31 1010.6
20260903113025 94 0.0 0.0 0.00 0.00 0.00 31 1010.6
20260903111532 94 0.0 0.0 0.00 0.00 0.00 32 1010.7
20260903110024 94 0.0 0.0 0.00 0.00 0.00 32 1010.7
20260903104524 94 0.0 0.0 0.00 0.00 0.00 34 1010.7
20260903103022 93 0.0 0.0 0.00 0.00 0.00 35 1010.8
20260903101521 94 0.0 0.0 0.00 0.00 0.00 35 1010.8
20260903100019 95 0.0 0.0 0.00 0.00 0.00 35 1011.1
20260903094521 94 0.0 0.0 0.00 0.00 0.00 36 1011.3
20260903093017 92 0.0 0.0 0.00 0.00 0.00 38 1011.6
20260903091509 89 0.0 0.0 0.00 0.00 0.00 42 1011.8
20260903090010 88 0.0 0.0 0.00 0.00 0.00 43 1011.8
20260903084504 88 0.0 0.0 0.00 0.00 0.00 43 1012.0
20260903083001 88 0.0 0.0 0.00 0.00 0.00 47 1012.1
20260903081620 87 0.0 0.0 0.00 0.00 0.00 46 1012.0